Regional Weather Roundup
Issued by NWS

Home | Current Version | Previous Version | Text Only | Print | Product List | Glossary On
Versions: 1 2 3 4 5 6 7 8 9 10 11 12 13 14 15 16 17 18 19 20 21 22 23 24 25 26 27 28 29 30 31 32 33 34 35 36 37 38 39 40 41 42 43 44 45 46 47 48 49 50
000
ASUS42 KKEY 030110
RWRKEY

FLORIDA REGIONAL WEATHER ROUNDUP FOR THE FLORIDA KEYS
NATIONAL WEATHER SERVICE KEY WEST FLORIDA
900 PM EDT WED SEP 02 2015

...SOUTH FLORIDA AND THE KEYS...

CITY           SKY/WX    TMP DP  RH WIND       PRES   REMARKS
FORT MYERS     PTCLDY    85  76  74 NW6       29.98R HX  94
SW REGIONAL AP CLOUDY    84  76  76 E10       29.99R HX  93
NAPLES         CLOUDY    86  76  71 SE5       29.99S THUNDER HX  96
MIAMI          MOCLDY    85  77  77 E7        30.01R HX  95
WEST KENDALL   CLEAR     84  77  79 CALM      30.02R HX  94
HOMESTEAD      NOT AVBL
MARATHON       CLEAR     85  77  77 SE3       30.01R HX  95
BOCA CHICA NAS MOCLDY    84  76  76 NE7       30.01R HX  93
KEY WEST INTL  PTCLDY    85  77  77 NE6       30.01R HX  95

...INTERNATIONAL WEATHER...

CITY           SKY/WX    TMP DP  RH WIND       PRES   REMARKS
NASSAU BAHAMAS PTCLDY    84  75  74 NE5       30.01R HX  92
CANCUN MEXICO  PTCLDY    84  81  89 E2        29.97R HX  98
COZUMEL MEXICO CLEAR     79  77  94 CALM      29.96R

ADJACENT COASTAL WATERS...

STATION/POSITION TIME  SKY/WX   TEMP    WIND        PRES    WAVE
                                AIR SEA DIR/SP/G            HT/PER
                 (UTC)          (F)     (DEG/KT/KT) (MB)    (FT/S)
PULASKI SHOAL LI 0000                                 N/A
SAND KEY         0050            86     110/  7     1015.9R
SOMBRERO KEY     NOT AVBL
LONG KEY         0000            86 89  120/  4/  6 1016.3R
MOLASSES REEF    0100            85 87  100/  6/  7 1016.5R
FOWEY ROCKS      NOT AVBL

$$


USA.gov is the U.S. government's official web portal to all federal, state and local government web resources and services.